Content
SEND FEEDBACK

Daily
Averages
Monthly
Summary
United States of America

BEDFORD PARK, ILLINOIS


Home > North America > United States > Illinois
Elevation: 623 feet     Latitude: 41 46N     Longitude: 087 45W

WEATHER
 
SELECT A DAY
Number of Records: 189,321;   Date Range: 1/1/95 - 7/26/14
 
SHARE

PRINT THIS DATA

[ ← Previous Day ]
WEATHER ALMANAC - MARCH 28, 2013
[ Next Day → ]
[ °C ]   °F
Weather ElementAverageHighLow
Temperature39.4 °F50 °F (1:51 pm)28 °F (5:51 am)
Dewpoint18.6 °F21.2 °F (7:51 am)16 °F (12:51 pm)
Humidity45.8 %69 % (3:51 am)27 % (1:51 pm)
Barometer30.34 in30.37 in (6:51 am)30.30 in (3:51 pm)
Wind Speed4.5 mph9.2 mph (4:51 pm)
Weather ElementAverage
Visibility10 mi
Wind DirectionSE (135.7 °)

Weather ElementTotal
Precipitation---
Heating Degree Days26 (Base 65)
Averaged from 23 records on March 28, 2013
WEATHER CONDITIONS BREAKOUT
WIND DIRECTION BREAKOUT
WEATHER BY HOUR - MARCH 28, 2013
[ °C ]   °F
Local TimeTemperatureDewpointHumidityBarometerVisibilityWind DirectionWind SpeedGust SpeedPrecipitationEventsConditions
1:51 AM30.0 °F19.9 °F66 %30.35 in10.0 miWest (270°)3.5 mphClear
2:51 AM30.0 °F19.9 °F66 %30.35 in10.0 miWest (260°)3.5 mphClear
3:51 AM28.9 °F19.9 °F69 %30.34 in10.0 miWest (260°)3.5 mphClear
4:51 AM28.9 °F19.0 °F67 %30.35 in10.0 miWest (270°)4.6 mphClear
5:51 AM28.0 °F19.0 °F69 %30.35 in10.0 miWest (270°)3.5 mphClear
6:51 AM28.0 °F19.0 °F69 %30.37 in10.0 miWest (270°)3.5 mphPartly Cloudy
7:51 AM33.8 °F21.2 °F60 %30.34 in10.0 miWest (260°)5.8 mphClear
8:51 AM37.0 °F21.0 °F52 %30.37 in10.0 miWNW (300°)5.8 mphClear
9:51 AM43.0 °F18.0 °F37 %30.37 in10.0 miVariable4.6 mphClear
10:51 AM45.0 °F17.1 °F33 %30.37 in10.0 miVariable6.9 mphPartly Cloudy
11:51 AM46.0 °F17.1 °F31 %30.37 in10.0 miWest (260°)5.8 mphPartly Cloudy
12:51 PM46.9 °F16.0 °F29 %30.36 in10.0 miCalmPartly Cloudy
1:51 PM50.0 °F17.1 °F27 %30.35 in10.0 miVariable5.8 mphPartly Cloudy
2:51 PM48.0 °F17.1 °F29 %30.32 in10.0 miCalmPartly Cloudy
3:51 PM50.0 °F18.0 °F28 %30.30 in10.0 miWest (280°)8.1 mphScattered Clouds
4:51 PM48.0 °F17.1 °F29 %30.30 in10.0 miENE (70°)9.2 mphScattered Clouds
5:51 PM46.0 °F16.0 °F30 %30.31 in10.0 miEast (80°)9.2 mphScattered Clouds
6:51 PM43.0 °F17.1 °F35 %30.32 in10.0 miEast (80°)9.2 mphScattered Clouds
7:51 PM41.0 °F18.0 °F40 %30.33 in10.0 miENE (70°)5.8 mphScattered Clouds
8:51 PM39.9 °F19.9 °F45 %30.34 in10.0 miESE (120°)4.6 mphScattered Clouds
9:51 PM39.0 °F19.0 °F45 %30.34 in10.0 miCalmMostly Cloudy
10:51 PM37.9 °F19.9 °F48 %30.34 in10.0 miCalmMostly Cloudy
11:51 PM39.0 °F21.0 °F49 %30.34 in10.0 miCalmOvercast
Hourly data recorded from KMDW, located miles away from Bedford Park, Illinois







STORIES FROM OUR PARTNERS